[Date Prev][Date Next][Thread Prev][Thread Next] - [Date Index][Thread Index][Author Index]

2 Line ISS Keps 10-13



ISS
1 25544U 98067A   01286.18505557  .00055532  00000-0  76750-3 0  5942
2 25544  51.6392 214.9809 0008087 194.4040 319.6766 15.56561119165499


----
Via the sarex mailing list at AMSAT.ORG courtesy of AMSAT-NA.
To unsubscribe, send "unsubscribe sarex" to Majordomo@amsat.org



AMSAT Top AMSAT Home